Location: Liverpool
(53.4084°N, 2.9916°W)
Time: 10:07:01
(UTC+00:00)

ISS - Visible Passes

Search period start: 04 March 2021 00:00
Search period end: 14 March 2021 00:00
Orbit: 417 x 422 km, 51.6° (Epoch: 04 March)

Date Brightness Start Highest point End Pass type
(mag) Time Alt. Az. Time Alt. Az. Time Alt. Az.
04 Mar -3.7 04:42:44 65° SSE 04:42:44 65° SSE 04:45:58 10° E visible
04 Mar -3.1 06:16:00 10° W 06:19:14 44° SSW 06:22:28 10° SE visible
05 Mar -1.5 03:57:03 23° E 03:57:03 23° E 03:58:30 10° E visible
05 Mar -3.4 05:30:01 23° W 05:31:50 53° SSW 05:35:06 10° ESE visible
06 Mar -3.7 04:44:22 60° S 04:44:23 60° S 04:47:42 10° ESE visible
07 Mar -1.7 03:58:44 24° ESE 03:58:44 24° ESE 04:00:16 10° ESE visible
07 Mar -2.9 05:31:42 20° WSW 05:33:29 35° SSW 05:36:35 10° SE visible
08 Mar -3.3 04:46:08 43° SSW 04:46:08 43° SSW 04:49:18 10° SE visible
09 Mar -1.6 04:00:38 21° ESE 04:00:38 21° ESE 04:01:56 10° ESE visible
09 Mar -2.1 05:33:37 16° WSW 05:35:00 20° SSW 05:37:32 10° SSE visible
10 Mar -2.4 04:48:12 25° S 04:48:12 25° S 04:50:32 10° SSE visible
11 Mar -1.1 04:02:55 13° SE 04:02:55 13° SE 04:03:21 10° SE visible
11 Mar -1.5 05:35:55 10° SW 05:36:20 10° SW 05:36:48 10° SSW visible
12 Mar -1.3 04:50:47 11° S 04:50:47 11° S 04:51:01 10° S visible
